Weather History for Yuma MCAS, AZ

Change the Weather History Date:

Wednesday, July 17, 2013

  Actual Average Record
Temperature  
Mean Temperature 97 °F 95 °F  
Max Temperature 108 °F 107 °F 117 °F (2005)
Min Temperature 85 °F 83 °F 67 °F (1940)
Degree Days  
Heating Degree Days 0 0  
Month to date heating degree days 0 0  
Since 1 June heating degree days 0 0  
Since 1 July heating degree days 0 0  
Cooling Degree Days 32 30  
Month to date cooling degree days 537 494  
Year to date cooling degree days 2403 2127  
Since 1 June cooling degree days 1342 1215  
Growing Degree Days 47 (Base 50)    
Moisture  
Dew Point 51 °F    
Average Humidity 28    
Maximum Humidity 44    
Minimum Humidity 12    
Precipitation  
Precipitation 0.00 in 0.01 in 0.37 in (1911)
Month to date precipitation T 0.10  
Year to date precipitation 1.11 1.43  
Sea Level Pressure  
Sea Level Pressure 29.83 in    
Wind  
Wind Speed 4 mph (WSW)    
Max Wind Speed 12 mph    
Max Gust Speed 14 mph    
Visibility 10 miles    
Events      
T = Trace of Precipitation, MM = Missing Value Source: NWS Daily Summary

Daily Weather History Graph

Daily Weather History Graph

Search for Another Location

Airport:

Trip Planner

Search our weather history database for the weather conditions in past years. The results will help you decide how hot, cold, wet, or windy it might be!

Date:

Astronomy

Jul. 17, 2013 Rise Set
Actual Time 5:42 AM MST 7:46 PM MST
Civil Twilight 5:15 AM MST 8:13 PM MST
Nautical Twilight 4:41 AM MST 8:47 PM MST
Astronomical Twilight 4:05 AM MST 9:23 PM MST
Moon 2:43 PM MST (7/17) 12:46 AM MST (7/17)
Length of Visible Light 14h 58m
Length of Day
14h 03m
Waxing Gibbous, 68% of the Moon is Illuminated
Jul 17
Waxing Gibbous
Jul 22
Full
Jul 29
Last Quarter
Aug 6
New
Aug 14
First Quarter

Hourly Weather History & Observations

Time (MST) Temp. Heat Index Dew Point Humidity Pressure Visibility Wind Dir Wind Speed Gust Speed Precip Events Conditions
12:57 AM 90.0 °F 90.3 °F 62.1 °F 39% 29.84 in 10.0 mi SSW 4.6 mph - N/A   Mostly Cloudy
1:57 AM 88.0 °F 87.9 °F 61.0 °F 40% 29.84 in 10.0 mi South 3.5 mph - N/A   Mostly Cloudy
2:57 AM 87.1 °F 86.7 °F 60.1 °F 40% 29.84 in 10.0 mi Calm Calm - N/A   Mostly Cloudy
3:57 AM 88.0 °F 87.6 °F 60.1 °F 39% 29.84 in 10.0 mi Calm Calm - N/A   Mostly Cloudy
4:57 AM 87.1 °F 87.0 °F 61.0 °F 41% 29.85 in 10.0 mi Calm Calm - N/A   Mostly Cloudy
5:57 AM 86.0 °F 84.0 °F 53.1 °F 32% 29.86 in 10.0 mi Calm Calm - N/A   Mostly Cloudy
6:57 AM 90.0 °F - 39.9 °F 17% 29.88 in 10.0 mi Calm Calm - N/A   Mostly Cloudy
7:57 AM 93.0 °F - 35.1 °F 13% 29.90 in 10.0 mi NE 4.6 mph - N/A   Scattered Clouds
8:57 AM 97.0 °F - 35.1 °F 11% 29.91 in 10.0 mi Calm Calm - N/A   Scattered Clouds
9:57 AM 98.1 °F - 43.0 °F 15% 29.90 in 10.0 mi Variable 3.5 mph - N/A   Mostly Cloudy
10:57 AM 100.0 °F - 48.9 °F 18% 29.89 in 10.0 mi East 3.5 mph - N/A   Mostly Cloudy
11:57 AM 102.0 °F - 48.9 °F 17% 29.88 in 10.0 mi Variable 4.6 mph - N/A   Mostly Cloudy
12:57 PM 104.0 °F - 51.1 °F 17% 29.86 in 10.0 mi West 5.8 mph - N/A   Mostly Cloudy
1:57 PM 104.0 °F 102.9 °F 55.0 °F 20% 29.84 in 10.0 mi SSW 8.1 mph - N/A   Mostly Cloudy
2:57 PM 106.0 °F 104.5 °F 54.0 °F 18% 29.82 in 10.0 mi Variable 5.8 mph - N/A   Mostly Cloudy
3:57 PM 108.0 °F - 52.0 °F 16% 29.80 in 10.0 mi West 11.5 mph - N/A   Mostly Cloudy
4:57 PM 107.1 °F - 50.0 °F 15% 29.77 in 10.0 mi West 5.8 mph - N/A   Mostly Cloudy
5:57 PM 106.0 °F - 48.0 °F 14% 29.76 in 10.0 mi WNW 6.9 mph - N/A   Mostly Cloudy
6:57 PM 105.1 °F - 48.9 °F 15% 29.77 in 10.0 mi West 6.9 mph - N/A   Mostly Cloudy
7:57 PM 102.0 °F - 48.9 °F 17% 29.77 in 10.0 mi WSW 6.9 mph - N/A   Mostly Cloudy
8:57 PM 100.0 °F - 48.9 °F 18% 29.78 in 10.0 mi WSW 8.1 mph - N/A   Mostly Cloudy
9:57 PM 96.1 °F - 51.1 °F 22% 29.79 in 10.0 mi WSW 3.5 mph - N/A   Mostly Cloudy
10:57 PM 95.0 °F - 51.1 °F 22% 29.80 in 10.0 mi Calm Calm - N/A   Mostly Cloudy
11:57 PM 93.9 °F - 51.1 °F 23% 29.81 in 10.0 mi Calm Calm - N/A   Mostly Cloudy